Weather Roundup
Issued by NWS Chicago, IL

Home | Current Version | Previous Version | Text Only | Print | Product List | Glossary Off
Versions: 1 2 3 4 5 6 7 8 9 10 11 12 13 14 15 16 17 18 19 20 21 22 23 24 25 26 27 28 29 30 31 32 33 34 35 36 37 38 39 40 41 42 43 44 45 46 47 48 49 50

000
NZUS59 KLOT 280808
HRRLOT

CHICAGO AREA WEATHER ROUNDUP
NATIONAL WEATHER SERVICE CHICAGO/ROMEOVILLE IL
300 AM CDT SAT MAY 28 2016

NOTE: "FAIR" INDICATES FEW OR NO CLOUDS BELOW 12,000 FEET WITH NO
SIGNIFICANT WEATHER AND/OR OBSTRUCTIONS TO VISIBILITY.

* THESE STATIONS ARE NOT UNDER NWS QUALITY CONTROL. THEY ALSO MAY NOT
  REPORT WEATHER SUCH AS PRECIPITATION OR FOG.

ILZ005-006-012>014-019>023-280900-
NORTHEAST ILLINOIS

CITY           SKY/WX    TMP DP  RH WIND       PRES   REMARKS
OHARE          CLOUDY    68  65  90 S8        29.85F
MIDWAY         CLOUDY    70  64  81 S8        29.86F
AURORA         CLOUDY    69  65  86 SE13      29.84F
LANSING*       MOCLDY    68  64  86 S6        29.89S
JOLIET*        CLOUDY    70  66  87 S8        29.86S
WAUKEGAN       CLOUDY    69  65  86 S8        29.85S
DUPAGE AIRPORT CLOUDY    69  63  81 S8        29.84F
WHEELING       CLOUDY    68  64  87 SE8       29.86S
KANKAKEE*      CLOUDY    69  64  85 SE8       29.88F
MORRIS*        MOCLDY    69  65  88 S13       29.83F
LEWIS AIRPORT* CLOUDY    68  64  85 S15       29.86S
$$

WIZ051-052-058>065-066-070>072-280900-
SOUTHEAST WISCONSIN

CITY           SKY/WX    TMP DP  RH WIND       PRES   REMARKS
MILWAUKEE      CLOUDY    70  64  81 S12       29.84R
KENOSHA*       CLOUDY    70  63  78 S8        29.85S
RACINE*        CLOUDY    65  61  87 S6        29.86S
BURLINGTON     CLOUDY    67  64  87 S6        29.83F
WAUKESHA       MOCLDY    66  63  88 S6        29.85S
WEST BEND      CLOUDY    68  63  83 S9        29.84R
$$

INZ001>003-010>013-019-020-280900-
NORTHWEST INDIANA

CITY           SKY/WX    TMP DP  RH WIND       PRES   REMARKS
GARY*          MOCLDY    70  70 100 SE6       29.89S
MICHIGAN CITY* NOT AVBL
RENSSELAER*    NOT AVBL
VALPARAISO     CLOUDY    68  65  90 SE5       29.91F
$$

LMZ740>746-280900-
SOUTHERN LAKE MICHIGAN

STATION/POSITION TIME  SKY/WX   TEMP WIND        PRES    VSBY
                                AIR  DIR/SP/G
                 (UTC)          (F)  (DEG/KT/KT) (MB)    (MI)
HARRISON CRIB    0700            68  180/ 13/ 14   N/A
BURNHAM HARBOR   0800            67  160/  8/ 11   N/A
CALUMET HARBOR   0700            70  170/  8/ 11 1011.2S
BURNS HARBOR     0702            70  160/ 10/ 16 1012.9R
MICHIGAN CITY    0700            70  130/  8/ 10   N/A
$$

ABBREVIATIONS USED IN REMARKS
   TC - TEMPERATURE IN CELSIUS
  WCI - WIND CHILL INDEX
   HX - HEAT INDEX
  VSB - VISIBILITY
$$




USA.gov is the U.S. government's official web portal to all federal, state and local government web resources and services.